Volver al catálogo

GALILEO 27 (223)

ActivoNavegaciónMEO
NORAD 49809·PAYLOAD·🇪🇺 EU

Lanzado Dec 5, 2021 desde Guiana Space Centre

Loading…

Próximos Pases (próximas 24 horas)

TLE

ActualizadoSource: CelesTrak SupGP

Época: Sep 13, 2026, 23:59 UTC

1 49809C 21116A   26256.99979167  .00000000  00000+0  00000+0 0  2563
2 49809  57.1244 339.2762 0003947 220.7254  45.4995  1.70476629    11

Sigue GALILEO 27 (223) en tiempo real con AllMySat

Download on the App Store